Wind_Speed
21 21 21 21 21 21 21 21 21 21 20 20 20 20 20 20 20 20 20 19 19 19 19 19 19 19 18 18 18 18 18 18 18 17 16 16 17 17 17 17 18 18 18 18 19 19 19 18 18 19 19 19 19 19 19 18 18 18 17 17 18 17 17 17 16 17 16 15 14 14 15 16 15 15 16 17 17 17 17 16 16 16 17 16 15 14 14 15
24 24 24 24 24 24 24 23 23 23 23 23 23 23 23 22 22 22 22 22 22 22 22 22 22 22 22 21 21 21 21 21 22 21 20 20 20 20 20 20 20 20 20 21 21 21 20 20 20 20 21 21 21 21 22 21 21 20 20 20 21 20 20 20 19 20 20 19 18 17 16 17 18 17 17 18 18 18 18 16 17 18 18 17 16 14 14 15
28 27 27 27 27 27 26 26 26 26 26 26 26 25 25 25 25 25 25 24 24 24 24 24 24 24 24 24 24 24 24 24 25 25 24 24 24 24 23 23 23 23 23 23 23 23 23 23 23 23 23 23 23 23 24 24 23 23 23 23 24 23 22 23 22 22 23 23 22 21 19 18 20 20 19 20 19 20 20 17 18 19 20 18 17 16 16 16
30 30 30 30 30 30 29 29 29 29 28 28 28 28 28 28 28 28 27 27 27 27 27 27 27 27 27 27 27 27 27 27 28 28 28 28 27 27 27 26 26 27 26 27 27 26 26 26 26 26 26 26 25 25 26 26 26 26 26 26 27 26 24 26 26 25 25 25 25 25 24 22 22 22 21 21 21 22 22 19 18 19 21 20 18 18 18 18
31 31 31 31 31 31 31 31 31 31 31 31 30 30 30 30 30 30 30 30 30 30 30 30 29 29 29 29 29 29 29 29 30 30 30 30 30 30 29 29 29 29 29 29 30 30 30 30 30 30 29 29 29 28 28 28 28 28 28 28 29 29 28 28 29 29 28 29 28 28 27 26 26 24 24 23 22 23 23 21 19 19 21 21 20 20 20 20
32 31 31 31 31 31 32 32 32 32 32 32 32 32 32 32 32 32 32 32 32 32 32 32 32 32 32 32 31 31 31 31 32 32 31 31 32 31 31 31 31 31 31 31 32 32 32 32 33 33 33 33 33 32 32 31 31 30 30 31 31 31 31 30 32 31 31 31 32 32 31 29 29 28 26 24 23 24 26 24 22 21 21 21 21 21 21 21
30 30 30 30 30 30 31 31 31 31 31 32 32 32 32 32 33 32 33 33 33 33 33 34 34 34 34 34 34 33 32 33 35 34 33 33 33 33 32 32 32 32 32 32 33 33 33 34 34 35 34 35 35 35 35 34 33 32 32 33 33 33 33 33 34 33 33 33 34 35 34 32 33 32 29 25 25 27 28 27 25 25 24 23 23 22 22 23
30 30 30 30 30 30 30 30 30 31 31 31 31 31 31 31 32 32 32 32 33 33 33 33 34 34 35 34 34 33 32 35 36 36 35 34 34 34 33 33 34 34 34 34 34 34 35 35 36 36 36 36 36 36 37 36 35 35 34 34 34 34 34 35 35 35 36 35 36 37 36 35 36 37 32 27 28 30 30 30 29 29 28 27 27 27 26 25
30 30 30 30 30 30 30 30 30 30 30 30 30 31 31 31 31 31 31 31 32 32 32 32 32 33 33 33 33 31 32 35 36 37 36 35 35 35 34 34 34 34 34 35 35 36 36 37 37 38 37 37 37 36 38 38 36 36 37 36 35 35 35 35 35 35 37 37 37 38 37 37 37 39 33 28 32 33 32 32 31 32 31 30 30 30 30 29
31 31 31 31 31 31 31 31 31 31 31 32 32 32 32 32 32 33 33 33 33 32 33 33 33 33 33 33 32 30 32 35 35 35 36 36 35 35 35 35 35 34 35 35 36 36 37 38 38 39 39 38 37 37 39 39 38 38 39 38 36 37 36 35 36 37 39 38 37 38 38 38 38 39 35 30 34 36 33 33 33 34 33 32 32 32 32 32
32 32 32 32 32 33 33 33 33 34 34 34 35 35 35 35 35 35 35 35 35 35 35 35 35 35 35 34 32 30 33 35 35 35 35 35 35 34 34 35 35 35 35 35 36 37 38 38 39 40 40 39 38 38 39 39 39 39 41 39 37 39 38 35 38 39 40 40 39 41 40 38 38 38 36 33 36 37 35 33 33 35 35 35 34 33 33 33
35 35 35 35 35 35 35 35 35 36 36 37 37 38 38 38 38 37 38 37 37 37 37 37 37 37 37 34 31 32 33 34 35 35 35 35 34 34 34 34 34 34 35 35 35 36 37 38 39 39 40 40 38 38 38 38 40 40 41 41 37 38 37 34 38 40 40 40 39 42 43 39 36 35 35 35 38 38 36 34 32 34 35 36 35 35 35 34
38 38 38 38 38 37 37 38 37 37 37 38 38 39 40 39 39 39 39 39 39 38 38 39 39 39 39 35 31 34 34 34 35 35 36 37 35 34 34 34 34 34 34 35 35 36 37 39 40 40 40 40 38 38 39 38 40 40 41 42 38 38 37 33 36 39 39 39 38 41 45 40 34 32 33 35 38 39 38 35 33 32 33 35 35 35 35 35
39 39 39 39 39 38 38 38 38 38 38 39 39 40 41 40 40 40 40 41 40 40 40 40 40 41 42 36 32 35 35 35 36 36 38 38 36 35 35 35 35 35 35 35 36 36 37 38 40 41 39 39 38 38 39 39 40 40 41 41 38 40 39 33 35 37 37 38 37 40 45 40 32 30 30 33 36 37 37 35 32 30 30 32 33 34 34 34
39 39 39 39 39 39 38 38 38 37 38 39 40 41 42 42 42 41 42 41 41 41 42 42 42 43 44 38 33 35 35 35 36 37 39 39 37 36 36 36 37 36 37 37 37 38 38 39 41 41 40 39 38 39 40 40 38 38 41 39 38 43 42 34 32 34 36 38 37 38 43 39 31 27 28 31 34 35 36 35 32 29 29 30 31 32 32 31
39 40 40 40 40 39 38 38 38 38 39 40 41 42 43 44 44 44 44 43 43 43 43 44 44 45 46 39 35 36 35 36 37 38 39 39 38 37 37 38 38 38 38 38 39 39 40 42 43 43 42 38 37 39 41 41 37 35 39 41 40 43 43 37 32 32 36 39 40 41 44 39 28 26 28 29 31 34 35 34 31 29 28 29 29 30 30 30
41 41 42 41 41 40 40 40 40 40 41 42 43 44 44 45 45 46 46 45 46 45 45 46 45 47 48 42 39 37 36 38 39 38 38 38 37 37 37 37 38 38 39 40 40 40 42 44 46 45 43 39 37 40 43 41 36 34 39 43 43 42 43 40 35 34 37 40 43 45 46 40 31 29 30 29 30 33 35 33 31 29 29 30 29 29 29 30
43 43 43 43 43 42 42 42 43 43 44 45 45 46 47 47 47 47 47 47 47 47 48 48 48 50 49 44 43 40 38 41 40 40 39 38 38 38 38 38 38 39 40 41 41 42 45 46 49 49 44 39 37 40 44 41 37 38 41 45 46 44 43 40 37 38 40 43 46 47 48 44 37 34 31 29 30 33 33 33 31 29 29 29 29 28 29 29
44 45 45 45 45 45 45 45 46 46 47 47 47 47 48 49 50 50 49 49 48 48 49 50 50 52 51 47 46 44 42 42 43 42 41 40 40 40 39 39 39 40 41 41 41 44 47 49 53 52 45 39 38 42 46 43 41 44 45 46 47 46 46 40 36 39 43 47 49 48 51 48 42 37 33 32 32 31 31 33 33 30 29 29 29 28 28 29
46 46 46 47 47 48 48 48 49 49 49 48 47 47 47 48 50 50 51 52 50 50 50 51 51 52 52 49 49 47 45 45 45 44 42 41 42 42 42 41 42 44 43 42 43 46 48 50 54 51 44 40 41 45 47 46 46 47 48 48 47 48 48 41 38 40 43 50 52 50 53 52 45 39 35 34 33 31 30 31 31 30 30 30 29 28 28 30
48 48 49 49 50 50 51 50 51 51 50 48 47 47 47 48 49 50 51 52 52 52 51 52 53 53 51 50 51 49 47 48 46 44 43 43 44 44 43 43 45 46 44 44 47 48 49 51 51 47 43 42 45 46 47 48 49 50 50 50 49 49 48 44 42 41 44 52 56 53 55 55 48 40 37 35 34 32 30 30 28 28 29 29 30 29 30 32
51 51 51 52 52 53 53 52 52 51 50 48 47 47 47 48 49 50 51 52 50 50 52 52 53 54 53 52 51 49 49 49 46 44 44 44 44 44 44 45 47 46 46 48 48 48 50 51 47 44 43 44 45 46 48 50 52 53 53 52 54 52 50 49 46 44 47 54 57 56 58 59 52 43 38 35 36 34 31 29 27 26 27 29 30 30 31 34
54 53 53 54 54 54 54 53 52 51 49 48 48 47 48 49 50 51 53 54 51 49 50 52 52 54 55 54 52 51 51 48 46 46 46 45 45 44 45 46 47 48 48 48 46 47 51 50 45 45 46 45 45 45 47 50 53 55 54 55 57 53 52 54 51 48 51 56 57 58 62 62 55 48 40 36 36 34 30 29 27 27 29 30 31 30 31 33
55 55 55 56 56 56 55 55 53 51 49 48 48 48 49 49 50 51 53 56 55 51 49 50 52 54 53 53 53 52 50 48 47 48 46 45 45 46 46 46 48 49 48 46 46 49 52 49 47 48 48 46 44 44 45 48 52 54 54 55 56 54 53 56 55 53 56 58 58 60 65 62 55 51 43 37 38 34 31 31 29 29 31 31 30 31 32 34
55 55 55 55 56 56 55 54 52 51 50 49 50 50 50 51 51 52 54 57 59 55 51 51 52 52 51 50 50 50 49 48 47 46 45 45 45 46 46 47 49 49 47 45 48 52 52 47 45 47 48 46 45 45 44 45 48 51 52 52 53 54 54 55 56 57 61 62 60 61 67 63 55 51 46 41 41 38 34 33 30 30 34 34 31 30 31 33
54 54 53 53 53 53 53 52 51 51 51 51 51 51 52 52 53 54 55 58 61 58 56 56 52 49 48 47 47 47 48 47 45 44 43 43 43 44 46 47 48 47 46 46 48 53 51 44 43 45 46 47 47 47 44 43 46 51 51 49 49 52 54 55 56 58 62 65 64 64 68 67 58 51 48 46 45 40 35 34 32 32 35 36 34 31 31 33
55 55 54 53 52 53 52 52 52 52 52 52 53 53 54 54 55 55 55 58 60 58 59 60 55 49 46 46 46 46 47 45 43 42 42 42 42 43 45 46 46 45 45 46 50 53 49 45 46 45 45 47 48 47 44 43 48 51 50 49 50 51 53 55 57 60 62 64 66 67 69 70 62 51 48 50 48 43 37 34 33 33 35 35 35 33 33 34
57 57 56 55 54 55 55 55 55 55 54 55 54 55 56 55 56 55 55 58 59 58 58 58 55 52 49 47 46 45 45 44 44 44 42 43 44 44 45 45 46 46 46 48 52 51 48 47 48 47 47 48 46 45 44 45 48 49 49 50 50 51 52 54 56 59 61 62 63 65 67 69 63 54 51 53 51 46 40 35 34 34 34 35 33 31 32 33
58 58 57 56 55 56 57 57 57 57 56 56 57 58 57 56 56 55 55 58 59 59 58 56 55 56 54 52 50 48 47 46 46 46 43 43 43 44 45 45 46 47 47 49 51 50 49 49 49 50 51 49 45 45 45 46 48 47 48 49 51 52 52 53 55 56 60 61 60 63 65 66 62 55 53 54 50 47 43 40 38 35 34 34 30 27 31 34
58 58 58 57 56 57 57 57 57 58 58 58 59 59 58 57 56 55 57 59 59 59 58 57 58 59 57 55 54 53 52 49 48 46 45 45 44 44 46 46 47 47 47 50 52 51 49 49 51 52 51 49 47 47 46 47 47 47 47 49 51 53 53 54 55 56 59 61 59 61 62 62 61 56 53 54 51 49 46 43 41 38 35 35 31 27 31 36
55 56 57 56 57 59 58 57 58 58 58 58 57 56 56 56 55 56 58 57 55 56 56 57 60 60 58 58 58 57 56 53 51 49 48 46 44 44 45 47 48 49 50 51 52 51 50 52 53 52 51 50 49 48 48 48 47 46 47 49 50 52 54 56 58 58 60 61 59 59 60 60 58 56 57 58 55 52 49 47 46 43 40 41 39 32 30 35
53 54 55 54 56 57 57 57 56 54 54 55 53 52 52 53 53 53 53 52 52 53 51 54 58 59 59 59 57 56 55 54 52 52 50 48 45 45 45 46 47 49 51 50 51 52 52 53 54 54 54 52 51 51 51 49 46 45 47 48 48 51 55 58 58 58 60 60 58 58 60 59 55 55 58 59 56 55 54 54 52 48 46 47 45 37 30 32
54 55 55 54 54 54 55 56 55 54 55 54 54 52 51 53 52 49 49 50 51 52 50 52 55 57 58 57 55 55 55 55 54 54 54 54 53 50 49 49 49 50 51 49 49 52 53 53 53 56 55 52 52 53 52 50 48 48 50 49 48 51 55 56 56 58 60 59 56 56 58 58 54 54 57 56 56 56 56 56 54 51 50 51 50 42 33 30
57 57 57 56 55 54 54 54 54 55 55 54 55 54 52 53 51 49 51 53 52 52 52 53 55 57 58 58 57 57 57 57 57 58 59 59 60 58 55 53 52 52 53 53 53 53 54 54 53 54 54 52 53 52 50 51 51 53 53 51 52 54 54 52 53 58 60 59 57 57 60 58 55 56 58 58 58 57 57 56 54 53 52 53 55 48 37 31
59 59 59 58 57 57 56 55 53 53 53 52 54 56 55 54 52 50 54 55 54 54 55 55 56 58 60 60 60 60 60 60 60 61 62 62 62 61 60 58 55 53 54 56 56 55 56 57 54 54 55 53 54 54 53 54 57 58 59 59 58 56 52 52 55 57 59 60 60 61 63 60 57 59 59 59 60 59 58 57 55 55 54 55 56 51 42 36
62 62 62 60 60 59 59 58 56 55 55 54 55 58 57 55 54 54 54 55 55 56 57 58 60 61 62 62 62 62 62 62 63 64 64 64 63 62 62 61 59 57 56 57 56 55 58 58 54 54 56 56 56 56 55 55 56 58 61 63 59 54 53 56 59 57 58 62 63 63 65 62 59 60 60 59 60 59 58 57 56 56 54 55 55 52 47 42
64 64 64 63 63 63 63 62 61 60 60 60 61 61 59 57 58 57 57 57 56 55 55 57 60 61 63 65 65 65 65 65 66 67 67 68 67 65 65 64 63 61 60 59 58 58 61 63 60 59 60 58 57 57 56 57 57 58 59 59 56 56 58 61 64 62 61 65 65 64 66 65 62 62 61 60 60 59 59 59 57 56 55 56 55 53 53 52
67 67 67 66 66 67 67 67 67 65 65 67 69 68 66 65 63 60 59 59 59 57 56 57 59 60 61 64 66 67 68 68 69 69 68 70 71 70 68 68 67 66 64 62 63 65 66 67 66 64 64 62 61 61 62 62 62 62 60 58 59 62 64 65 66 65 63 66 68 67 67 68 67 64 61 60 60 61 62 60 59 59 59 59 58 55 55 56
71 72 71 70 70 70 70 72 72 71 72 73 74 73 71 70 68 66 64 63 61 61 61 61 61 61 61 62 65 67 69 69 70 69 68 70 73 73 72 70 69 69 66 64 65 67 67 66 65 65 66 67 66 67 68 66 64 64 62 61 63 65 67 68 68 68 67 70 73 72 71 70 67 63 61 61 61 62 64 63 61 62 62 63 63 60 57 57
74 75 74 73 74 73 73 73 75 75 77 78 77 76 74 73 72 71 70 69 67 66 65 64 64 66 65 64 65 66 68 69 70 69 67 68 70 71 72 70 68 67 66 65 66 68 69 69 70 68 67 68 69 68 67 64 63 63 63 63 64 65 67 69 70 70 70 73 76 75 75 72 65 63 62 63 64 64 66 66 65 65 64 63 63 61 58 58
75 77 75 74 76 76 75 75 76 77 79 80 80 79 78 77 76 74 73 75 75 74 73 71 70 70 69 67 66 66 68 70 69 67 66 66 65 66 68 66 64 64 64 64 66 68 68 68 69 68 67 68 68 64 62 61 62 64 65 65 65 66 68 71 74 73 71 74 75 75 78 73 64 64 65 63 66 66 65 67 67 66 63 61 62 61 59 58
76 77 76 75 77 78 77 77 78 78 79 80 80 79 79 79 78 76 76 78 79 79 79 78 77 75 73 72 71 71 72 73 71 69 69 69 67 66 65 64 64 66 66 67 68 69 68 66 65 65 63 62 59 54 54 57 58 61 65 65 65 66 67 71 75 74 73 76 76 75 80 77 66 66 68 66 67 68 66 66 66 64 61 61 62 60 59 59
76 76 76 76 77 78 78 79 80 80 80 79 78 77 77 78 78 78 78 79 80 80 80 79 79 78 77 77 77 77 78 78 77 75 74 75 74 71 69 68 69 70 70 70 69 68 67 63 61 60 58 56 54 50 49 51 52 55 59 60 61 63 65 68 73 75 75 78 77 77 83 79 65 61 66 66 66 66 65 65 64 61 60 62 63 61 60 60
74 75 75 75 76 78 79 80 80 81 80 79 78 78 77 78 78 78 78 79 79 80 80 80 80 80 79 80 80 81 81 82 83 81 79 79 76 72 71 72 73 72 71 70 68 65 61 57 56 57 57 56 55 51 48 48 48 50 51 52 55 57 60 64 68 72 76 78 77 80 85 80 65 58 60 60 60 62 61 61 61 60 61 63 63 63 62 63
75 75 75 75 76 78 78 78 78 79 80 79 80 79 78 78 78 76 76 77 77 78 80 80 80 79 79 80 81 83 84 85 86 85 84 83 79 75 74 72 70 67 66 65 65 63 61 58 56 57 58 58 58 55 53 51 50 52 51 51 53 53 55 59 61 66 71 72 73 76 78 75 66 61 61 58 58 61 60 58 60 61 63 64 63 63 65 67
76 76 75 75 77 78 78 78 77 79 79 79 80 80 79 79 78 76 76 77 77 78 79 80 79 79 81 82 82 84 85 85 87 88 88 87 85 82 80 75 70 65 63 63 66 67 70 71 68 67 67 65 64 63 61 59 60 60 58 57 57 57 57 58 61 65 68 67 68 68 68 69 65 59 60 61 61 62 61 58 58 60 62 62 62 63 64 64
76 76 76 76 78 79 79 78 78 79 78 78 79 80 79 79 79 78 78 79 77 76 78 79 79 79 81 82 83 85 86 86 87 89 90 89 88 86 85 83 80 76 73 74 77 79 82 83 81 81 81 77 74 73 70 69 69 68 66 64 63 62 61 62 63 64 63 64 67 65 62 64 60 54 55 59 60 60 58 54 53 53 55 56 57 58 57 57
76 76 76 77 79 79 79 79 79 80 79 78 79 80 80 80 81 81 80 80 79 78 79 80 80 80 79 80 82 84 85 86 87 87 88 89 88 86 86 86 85 84 83 85 87 88 90 90 88 88 89 87 84 82 79 79 79 78 76 73 70 68 69 71 70 67 65 69 72 68 65 65 62 56 54 53 51 52 53 51 49 48 49 50 51 53 52 50
74 74 75 77 78 78 79 79 80 80 80 79 79 79 80 81 82 81 80 79 79 79 79 80 80 80 78 78 80 81 82 83 84 84 85 85 87 87 87 87 85 84 86 89 92 93 94 94 92 91 93 94 92 90 88 87 86 86 84 82 81 80 82 84 84 81 79 80 81 79 79 79 74 69 65 59 58 62 65 65 62 60 59 56 56 57 55 52
73 73 73 74 75 75 75 76 77 78 79 79 80 80 79 79 80 79 79 78 77 77 78 79 79 77 75 74 76 77 77 78 79 79 78 79 81 84 85 86 86 85 87 90 93 95 93 90 88 86 85 87 86 83 82 80 79 79 79 78 78 79 83 86 87 83 82 83 84 85 88 89 84 79 77 75 75 77 77 74 72 73 72 67 64 65 64 63
72 73 73 73 73 73 73 74 74 75 77 77 78 78 77 77 77 77 78 79 77 77 78 79 79 79 77 76 75 74 72 73 75 75 74 74 77 79 80 81 82 82 85 87 90 92 90 88 87 83 81 82 80 77 77 76 76 78 77 74 74 76 78 79 76 74 75 80 83 85 88 91 88 84 82 82 82 80 77 76 77 79 78 75 71 70 69 68
72 72 73 73 73 73 72 72 72 74 76 74 74 75 75 75 76 76 78 78 77 76 77 78 79 81 81 81 79 77 76 77 78 78 77 78 79 79 78 77 75 74 76 78 80 83 84 86 86 84 84 87 87 86 85 82 80 82 81 77 75 74 73 71 71 72 74 76 79 82 84 84 81 80 79 80 80 81 81 83 83 81 78 73 69 68 66 65
Wind_Direction
264 266 268 269 271 272 274 275 277 278 279 280 281 282 283 285 286 287 289 291 292 293 294 295 296 296 297 297 298 298 297 296 293 291 291 291 291 291 292 292 293 293 294 294 295 297 298 299 300 300 301 302 304 305 305 307 309 310 314 315 315 318 318 319 322 320 319 321 325 327 328 328 327 328 326 325 326 325 327 334 335 326 329 335 331 325 321 321
265 266 267 268 269 271 272 273 274 275 276 277 279 279 280 281 282 283 285 286 288 289 290 291 292 292 293 294 295 295 296 297 296 294 294 293 292 291 291 290 290 289 289 289 290 290 291 293 294 294 295 295 297 298 299 300 302 304 307 309 309 311 313 314 315 315 315 316 317 319 321 323 321 323 323 321 321 319 319 326 328 324 327 333 330 326 324 323
266 267 268 269 270 270 271 272 273 274 275 275 276 277 277 278 279 279 280 282 283 284 286 287 288 289 290 291 292 293 294 296 295 294 295 295 294 294 293 292 291 290 288 288 288 288 288 289 290 291 292 292 293 294 295 295 297 300 303 305 304 305 309 310 310 312 313 313 314 313 312 314 313 315 316 316 318 314 312 318 320 318 320 326 326 322 322 322
268 269 270 270 271 272 272 273 273 274 274 274 275 276 276 276 277 277 278 278 279 280 281 282 284 285 286 287 289 290 292 293 293 292 293 293 294 294 294 293 292 292 291 290 289 289 289 289 289 289 290 290 290 291 292 293 294 296 300 302 301 301 305 307 306 309 310 309 311 309 308 309 307 309 309 310 313 308 307 312 314 312 313 318 319 316 318 318
268 269 270 271 272 273 273 274 274 274 275 275 275 276 276 276 276 276 276 276 277 278 279 280 280 281 282 283 285 286 288 290 289 289 290 291 292 292 292 292 292 292 291 291 291 291 290 290 289 289 290 290 290 291 292 293 292 294 297 298 297 299 302 303 303 306 307 306 306 305 306 306 304 304 304 307 309 302 302 307 308 308 308 311 313 311 313 314
268 269 270 271 272 273 274 274 275 276 276 276 276 277 277 277 277 276 276 276 276 277 277 278 278 279 280 281 282 284 286 286 285 286 288 289 289 290 291 291 291 291 291 291 291 291 291 290 290 290 290 291 291 292 293 293 293 295 296 295 295 296 298 299 299 301 303 303 302 302 303 304 302 301 302 307 304 299 299 302 303 302 302 304 304 304 306 308
268 269 270 270 271 272 273 274 275 276 277 277 278 278 279 279 278 278 278 278 277 277 277 277 277 278 278 280 280 282 284 284 283 284 286 287 288 289 290 290 290 290 291 291 291 291 291 290 290 290 291 291 292 293 293 293 294 294 294 294 294 295 296 296 295 297 298 299 299 299 301 302 300 299 302 305 299 297 298 299 299 296 296 297 295 295 297 300
267 268 268 269 270 271 272 273 273 274 275 276 277 278 279 279 279 280 279 279 279 279 279 278 279 279 279 280 280 282 284 283 283 283 284 285 286 286 287 288 288 289 290 290 291 290 291 290 290 290 290 290 291 292 292 291 292 293 292 292 294 295 295 295 295 296 296 297 297 297 298 298 297 297 301 302 294 294 296 297 297 294 295 294 292 292 292 293
265 265 266 267 267 268 269 270 271 272 273 274 275 276 277 278 279 280 280 280 280 281 281 281 281 280 280 281 281 285 284 283 283 284 284 283 284 284 285 286 287 288 289 289 290 290 290 290 290 290 290 290 290 291 291 291 292 292 291 291 294 294 294 296 297 296 294 294 296 296 295 295 295 295 299 300 293 294 295 294 294 293 294 292 291 291 290 290
265 265 265 266 266 267 267 268 269 270 271 272 273 274 274 275 276 277 278 279 280 281 281 281 282 281 282 282 283 286 284 283 284 285 284 283 282 283 284 284 285 286 287 288 289 290 290 289 290 290 289 290 290 290 290 291 292 291 291 292 293 293 294 297 296 295 293 293 294 293 292 293 294 294 297 297 292 294 294 293 292 291 291 290 290 289 289 289
266 267 267 267 267 268 268 268 269 269 270 271 271 272 273 273 274 275 276 277 277 279 280 280 281 281 281 282 285 286 284 284 286 285 285 284 282 282 283 283 284 285 286 287 288 289 289 289 289 289 289 289 289 289 289 291 292 291 292 292 293 293 294 296 295 293 293 294 294 292 290 290 292 294 296 294 291 291 291 290 290 289 290 290 289 288 286 287
266 267 267 268 268 268 269 269 270 270 271 271 271 272 272 272 272 273 274 274 275 275 277 278 278 279 279 281 285 285 284 286 286 286 285 284 283 283 283 284 285 285 286 287 287 288 288 288 288 288 288 288 289 289 289 290 291 291 292 291 293 293 294 295 293 293 294 295 294 291 288 289 292 294 295 293 290 289 289 289 287 288 290 290 289 287 286 285
265 266 267 267 268 268 269 270 270 271 272 272 272 273 272 272 272 272 273 273 273 273 274 274 276 277 277 280 284 284 285 286 286 287 286 284 285 285 286 286 286 286 287 287 287 287 287 288 288 287 288 289 290 289 289 291 291 291 291 291 295 292 290 293 292 294 296 294 293 290 288 289 291 292 292 290 288 289 289 289 288 287 288 288 288 287 286 286
265 265 266 267 267 268 269 270 270 271 272 272 273 273 273 273 273 273 273 272 273 273 272 273 274 275 276 279 282 282 283 284 284 285 284 285 287 288 289 289 289 289 290 289 289 289 289 289 289 289 289 289 290 291 291 291 291 292 291 293 296 290 289 294 294 296 297 294 293 290 288 290 289 289 289 286 286 288 289 289 289 290 290 289 288 287 286 286
264 265 266 266 267 268 269 270 271 272 273 274 275 274 274 274 274 274 273 273 273 272 272 272 272 274 276 278 280 280 280 281 282 282 282 285 287 289 290 290 291 292 292 291 291 291 291 291 290 290 289 290 292 293 293 291 291 294 294 294 292 289 291 295 295 296 296 294 293 290 289 291 291 287 285 283 285 287 287 287 289 291 291 290 288 287 286 286
265 265 266 266 267 267 268 269 271 273 274 275 276 276 276 276 275 275 274 274 273 272 272 272 272 274 275 277 276 276 278 279 279 280 282 284 285 287 288 289 291 291 291 291 291 292 292 290 289 289 289 291 295 296 294 293 295 297 294 290 287 288 292 295 295 296 294 294 293 290 289 293 296 290 284 282 284 285 285 286 289 291 292 291 290 289 288 286
265 266 266 266 266 266 267 269 271 274 275 275 275 275 275 276 276 275 275 274 273 272 272 272 273 273 274 276 274 273 276 277 278 280 281 283 285 287 288 289 290 290 290 290 290 291 290 289 288 287 287 291 296 297 295 296 299 295 289 286 286 288 290 294 297 295 293 292 291 290 290 294 297 294 290 288 286 284 284 287 290 292 293 294 293 291 288 286
265 265 266 265 265 266 267 270 272 275 276 276 274 273 273 273 274 274 274 274 273 273 273 273 273 273 274 275 274 274 273 274 277 278 279 283 285 287 288 290 290 291 289 289 290 290 288 286 285 284 286 293 299 297 294 295 296 289 285 285 286 288 288 291 296 297 295 293 291 291 292 294 295 295 296 296 292 287 287 290 291 291 293 294 293 291 289 287
264 264 264 264 264 265 267 270 273 276 277 276 274 273 271 271 271 271 272 272 273 273 273 273 273 274 275 275 275 274 274 274 275 276 279 282 284 285 287 288 289 289 288 290 291 287 285 284 281 282 289 297 298 293 290 291 290 287 285 285 286 288 287 290 295 296 296 293 292 293 294 294 295 296 297 296 293 291 291 293 293 293 293 292 293 293 290 287
263 263 263 263 263 265 267 270 273 276 277 276 275 274 272 271 270 270 271 271 271 271 272 273 273 273 274 275 275 274 274 274 274 275 279 281 282 283 284 286 287 286 287 290 287 283 283 282 280 285 295 298 292 287 287 288 287 286 285 285 286 286 287 291 293 292 293 292 290 292 292 292 293 294 294 293 292 292 293 292 292 293 292 291 293 292 289 286
262 262 262 262 263 265 267 270 273 276 276 275 274 274 274 274 273 272 271 271 271 271 271 272 273 273 274 274 273 274 274 273 274 276 278 278 279 280 282 284 283 284 286 285 282 283 283 281 283 291 297 292 286 284 285 286 285 285 284 285 285 285 287 289 288 289 290 287 287 289 289 289 291 292 291 291 291 292 292 291 291 290 288 289 290 290 289 289
262 263 263 263 264 265 267 269 272 274 273 272 273 274 274 274 274 274 274 272 271 272 272 271 272 274 274 273 273 274 274 274 276 277 276 276 277 279 280 280 280 282 282 280 282 285 283 282 287 294 292 287 285 285 284 283 283 283 284 285 285 286 289 287 287 288 287 284 285 288 288 288 289 289 289 291 290 290 290 289 290 288 285 289 292 292 291 290
263 263 264 264 265 266 267 269 270 270 269 270 272 273 273 273 274 274 274 273 271 271 272 273 273 273 273 273 274 274 274 277 278 277 276 277 278 279 278 278 279 279 278 279 283 283 281 284 290 290 286 286 286 285 284 282 282 282 284 285 285 288 291 288 288 289 285 284 285 287 286 285 287 288 289 291 289 289 291 290 289 285 284 288 292 293 290 287
264 264 265 266 266 266 267 268 267 266 267 269 271 271 272 273 273 273 273 273 272 270 270 272 271 271 272 273 274 275 277 278 278 277 278 278 278 277 277 278 277 275 276 280 281 279 279 283 287 286 285 285 285 285 284 282 281 282 282 283 286 288 289 288 289 289 286 284 285 287 286 285 286 288 288 289 287 288 292 291 287 284 285 286 287 289 288 286
265 265 266 266 266 266 266 265 265 264 266 268 270 270 271 272 272 272 272 273 274 274 271 269 268 270 273 274 276 278 279 278 277 278 278 277 277 276 275 274 273 275 277 278 277 276 276 280 283 283 284 286 286 284 282 281 283 282 280 281 283 285 285 285 287 287 286 285 285 286 285 286 288 287 288 289 287 288 290 288 285 286 288 289 288 286 285 285
264 264 265 266 266 266 265 263 263 264 266 268 269 270 271 272 272 272 272 273 275 276 274 271 269 269 272 274 276 277 277 278 280 280 279 277 276 274 273 271 272 274 275 275 274 272 274 278 279 279 282 284 282 281 281 283 283 282 281 281 281 280 281 282 283 283 283 284 285 284 284 286 289 289 291 291 288 287 287 286 289 291 291 292 291 289 287 285
262 263 263 264 265 265 264 263 264 266 268 270 271 272 273 274 274 274 274 274 274 275 275 274 275 274 274 274 273 274 275 278 279 278 277 276 275 273 273 273 273 273 274 273 271 272 276 279 277 276 278 277 278 281 284 284 281 280 282 283 280 278 278 278 279 279 280 282 283 282 282 285 289 294 295 292 290 289 289 292 295 294 291 291 292 294 293 289
262 263 263 263 263 264 264 264 266 268 270 271 271 272 274 275 275 275 275 274 274 274 275 277 280 280 278 275 273 274 275 275 275 274 274 274 274 275 274 274 274 273 272 271 271 274 277 276 276 276 275 274 276 280 281 280 279 281 282 281 280 280 279 279 279 279 279 280 279 280 281 283 289 296 295 291 290 291 296 299 297 294 291 290 291 295 297 295
263 263 263 263 262 263 264 265 267 269 270 271 271 272 273 274 275 274 274 273 273 275 277 279 281 281 280 279 279 277 275 273 272 273 274 274 273 273 273 272 273 272 272 271 271 273 274 274 275 274 274 276 278 278 277 277 278 279 279 280 281 281 281 281 280 279 279 278 277 279 281 284 290 294 292 288 289 293 297 297 295 294 291 289 290 294 297 296
264 264 263 263 262 262 263 264 267 269 270 271 271 272 273 273 274 274 272 271 273 276 279 281 280 279 280 281 281 280 278 276 274 273 273 274 273 272 272 272 273 273 272 271 270 272 273 273 272 273 275 278 278 278 278 277 277 278 279 280 280 280 280 280 279 278 277 276 277 280 283 286 289 292 290 289 291 292 293 293 294 293 290 287 287 291 295 295
264 264 264 263 262 262 263 264 267 270 272 273 273 274 274 274 272 271 272 275 277 278 278 278 278 279 280 280 280 281 281 280 278 276 275 273 272 271 272 272 274 274 273 271 272 273 273 272 272 273 275 276 277 277 278 277 278 280 280 279 278 278 277 275 275 275 275 276 279 282 284 285 284 286 288 290 291 292 293 294 292 291 290 289 287 290 296 294
266 266 266 265 264 264 264 264 265 269 272 274 276 276 276 275 272 271 274 277 277 276 276 277 278 278 278 278 279 280 280 280 279 280 278 276 272 270 271 271 273 274 274 274 275 274 273 273 274 274 273 275 277 277 277 277 277 278 277 276 276 275 273 272 273 273 274 277 281 284 285 283 281 281 284 287 290 292 294 293 292 292 292 291 289 293 300 296
268 268 269 268 267 266 266 263 262 264 268 270 272 272 271 271 271 273 274 274 274 275 277 276 276 277 277 277 277 277 278 278 279 280 280 279 277 274 272 272 273 275 276 275 275 274 274 275 276 277 278 279 279 278 277 276 275 273 272 271 271 271 271 271 273 275 277 278 280 281 280 279 282 284 285 287 289 290 290 289 291 293 293 292 291 295 302 298
269 270 270 270 269 269 268 266 263 263 265 267 267 267 266 267 269 271 271 272 273 273 273 273 274 275 275 275 275 276 276 277 277 279 279 279 279 278 276 275 275 276 276 275 273 274 275 275 276 279 281 281 280 279 279 278 275 271 270 267 266 267 268 271 274 276 277 277 277 276 274 277 283 285 286 288 288 287 287 289 291 293 293 293 293 297 302 295
269 269 269 269 270 270 270 267 264 263 263 264 264 264 263 265 267 268 268 269 269 269 269 271 271 272 272 272 273 274 276 277 277 277 277 277 277 278 278 279 279 278 278 277 277 277 276 275 277 279 279 278 278 278 278 279 277 274 271 267 266 268 270 272 272 273 274 275 274 274 275 278 281 282 283 284 285 286 288 290 291 291 291 292 293 297 299 295
268 268 267 267 268 269 268 267 264 261 260 261 262 261 260 262 264 264 265 266 267 267 268 268 267 268 270 271 272 273 274 276 276 276 277 276 275 276 277 279 280 281 280 280 281 281 280 279 277 277 277 276 276 275 276 277 277 275 272 269 271 272 272 273 272 272 271 271 271 274 275 277 278 279 279 281 282 285 286 287 288 288 291 293 295 298 298 295
267 267 267 267 267 267 267 267 264 261 259 259 260 259 259 260 261 262 263 265 265 266 267 267 265 265 266 268 270 271 273 275 275 276 277 276 275 276 277 279 280 281 282 283 283 282 281 281 278 276 276 276 275 275 275 274 274 274 274 274 275 275 275 276 276 275 272 270 270 271 272 273 274 276 279 281 283 285 285 285 286 289 291 293 295 298 298 296
267 266 266 266 267 267 267 267 266 263 261 260 259 259 260 261 262 261 261 262 262 263 265 267 265 264 265 266 267 269 271 273 273 275 277 278 276 275 277 279 280 281 283 284 284 283 282 282 280 277 275 273 273 273 273 273 273 275 277 276 275 275 277 278 277 276 275 273 271 269 268 269 272 275 278 281 282 283 283 284 286 289 291 293 294 296 296 295
266 266 266 266 267 267 266 266 266 265 264 262 261 261 261 261 261 260 260 260 260 261 262 265 266 266 265 266 266 266 267 270 272 274 277 278 277 276 278 280 281 281 282 282 282 283 283 280 278 279 277 274 272 271 271 273 276 278 278 276 274 274 276 276 274 274 275 273 272 269 267 268 273 276 276 278 279 279 280 282 284 287 290 293 294 295 294 293
265 265 265 265 266 266 266 266 265 265 265 264 264 263 263 262 260 260 260 261 261 262 263 264 266 266 265 266 267 268 268 268 271 274 276 277 278 277 278 280 281 282 283 283 283 284 283 280 278 279 278 276 276 275 274 275 277 277 275 275 275 276 277 275 273 273 273 273 273 272 269 268 270 272 272 274 275 276 279 281 283 284 287 289 291 293 294 292
265 265 265 265 265 265 265 265 265 265 265 265 265 264 264 264 263 262 262 263 264 263 264 265 266 268 269 269 269 270 270 269 270 272 273 273 275 275 275 276 279 280 282 284 285 284 282 279 277 275 275 276 278 279 277 276 275 275 275 275 276 277 276 274 272 273 274 272 270 271 270 268 266 267 269 271 273 275 277 280 281 283 286 289 290 290 290 289
265 265 265 264 264 265 265 265 265 264 265 265 266 266 267 266 265 264 264 265 266 266 266 267 268 269 269 269 269 268 268 269 268 268 269 269 269 270 272 273 276 279 281 283 283 281 279 277 277 276 276 276 276 275 275 275 276 275 274 274 275 275 274 272 272 273 271 268 266 266 266 267 267 268 270 270 272 274 275 275 278 281 285 288 287 286 284 283
265 265 265 264 264 265 266 266 265 265 265 266 267 267 268 268 267 266 265 266 267 268 268 269 269 269 268 269 269 269 269 269 268 267 268 269 268 268 270 273 276 279 282 283 282 279 276 275 277 278 278 277 275 274 273 274 274 273 273 273 272 271 271 270 269 269 266 263 264 264 263 267 271 271 271 271 270 271 272 274 277 281 283 283 281 279 278 278
266 265 265 264 264 264 265 266 267 268 267 267 267 267 267 267 267 267 267 267 267 268 269 269 269 269 269 268 268 268 269 270 270 270 270 270 269 269 271 273 276 279 279 278 275 273 272 273 276 279 279 278 277 276 275 275 273 272 271 270 268 267 267 267 267 267 264 263 265 264 264 269 274 273 271 270 268 270 273 276 279 281 279 277 277 277 277 278
268 267 267 266 266 265 265 266 268 269 269 268 268 267 267 268 268 268 268 268 268 268 269 269 269 269 268 268 267 267 267 268 270 270 270 270 270 270 272 274 275 275 273 270 267 267 268 269 272 275 276 276 275 275 276 276 272 271 270 269 269 269 269 270 271 269 268 269 269 267 269 273 273 269 265 264 267 272 277 278 278 276 275 274 274 276 277 279
270 269 269 269 268 267 267 267 268 270 270 270 270 269 269 269 269 269 269 268 268 269 269 269 268 267 267 267 268 268 268 268 269 269 269 268 268 268 270 271 270 267 266 266 267 269 270 270 271 272 272 273 273 274 275 273 270 270 270 271 271 271 272 275 276 274 274 273 269 267 270 273 271 266 263 262 265 271 275 276 274 273 272 273 274 276 278 280
271 271 271 270 270 269 269 269 269 271 272 272 272 271 271 271 271 270 269 269 269 269 268 268 267 267 268 269 269 269 269 268 268 269 269 269 268 268 267 267 266 265 265 266 268 271 272 273 273 274 274 274 273 273 272 271 269 270 270 270 269 270 272 274 274 275 276 272 268 268 270 272 271 268 265 264 265 269 271 273 273 273 275 276 277 276 277 281
271 271 272 271 271 272 272 272 271 271 272 272 272 273 272 272 271 271 271 271 270 269 268 268 269 269 269 269 269 269 269 269 269 269 270 271 270 269 267 266 265 265 265 266 268 271 273 273 274 274 275 276 276 275 274 273 272 272 271 271 270 270 271 273 273 274 273 271 270 272 272 273 274 273 271 269 269 270 271 271 272 276 278 280 278 276 275 277
270 270 271 271 272 272 273 273 273 272 273 273 273 273 274 273 273 273 272 272 271 270 270 270 270 270 270 269 268 267 268 269 270 270 271 272 271 270 268 266 265 265 265 266 268 270 273 274 275 275 276 277 278 278 278 278 277 276 276 275 275 274 274 274 274 274 273 272 274 276 276 275 275 275 275 274 274 276 276 274 275 277 278 279 279 278 276 276
270 270 270 270 271 271 272 272 272 272 272 272 273 274 274 274 273 273 272 272 272 271 271 271 270 270 268 267 267 267 268 268 269 269 269 270 270 270 269 268 267 265 264 265 267 269 272 275 276 277 278 278 278 279 279 279 280 280 279 278 277 277 277 277 277 277 276 276 277 278 278 278 277 277 278 278 278 280 281 281 281 280 280 282 281 279 277 275
272 272 272 271 271 272 272 272 271 271 271 272 273 273 273 272 271 271 271 270 270 270 270 269 269 268 267 266 266 266 266 266 266 266 265 265 266 267 269 269 269 267 265 265 266 267 270 273 274 275 276 275 275 276 276 278 280 279 277 277 277 278 279 279 278 278 278 280 280 279 279 280 281 281 280 280 280 282 284 285 284 284 284 285 284 280 278 276
273 273 273 273 272 272 272 272 272 272 272 273 273 272 271 271 271 271 271 270 269 269 269 269 269 269 268 267 266 265 264 264 264 264 264 264 264 264 265 266 267 268 267 267 267 268 269 270 272 273 274 274 274 274 276 279 278 274 274 277 278 279 279 279 277 277 278 279 279 279 280 282 283 282 283 283 283 284 285 285 286 287 287 286 283 280 278 276
Height
5884 5884 5885 5885 5885 5885 5885 5885 5885 5885 5886 5886 5886 5886 5885 5885 5885 5885 5885 5885 5885 5885 5885 5885 5885 5885 5885 5885 5885 5885 5885 5885 5885 5884 5884 5884 5884 5883 5883 5883 5882 5882 5882 5881 5881 5880 5880 5879 5879 5879 5878 5877 5877 5876 5875 5875 5874 5873 5873 5872 5871 5871 5870 5869 5869 5868 5868 5868 5867 5867 5866 5865 5864 5864 5863 5862 5862 5861 5861 5860 5860 5859 5858 5858 5857 5856 5855 5854
5882 5882 5883 5883 5883 5883 5883 5883 5883 5884 5884 5884 5884 5884 5884 5884 5883 5883 5883 5883 5883 5883 5883 5883 5883 5883 5883 5883 5883 5883 5883 5883 5883 5883 5883 5883 5882 5882 5882 5881 5881 5880 5880 5880 5879 5879 5878 5878 5877 5877 5876 5876 5875 5874 5874 5873 5872 5872 5872 5871 5870 5869 5869 5868 5867 5867 5866 5866 5865 5865 5864 5864 5863 5863 5862 5861 5861 5860 5859 5859 5858 5857 5857 5857 5856 5855 5854 5853
5880 5880 5880 5880 5881 5881 5881 5881 5881 5881 5881 5881 5881 5881 5881 5881 5881 5881 5881 5881 5881 5881 5881 5881 5881 5881 5881 5881 5881 5881 5881 5881 5880 5880 5880 5880 5880 5880 5879 5879 5879 5878 5878 5878 5877 5877 5876 5876 5875 5875 5874 5874 5873 5873 5872 5871 5871 5870 5870 5869 5868 5868 5867 5866 5865 5865 5864 5863 5862 5862 5862 5862 5861 5861 5860 5860 5859 5858 5857 5858 5857 5855 5855 5855 5854 5853 5853 5852
5877 5877 5878 5878 5878 5878 5879 5879 5879 5879 5879 5879 5879 5879 5879 5879 5879 5879 5879 5879 5879 5879 5879 5879 5879 5879 5879 5879 5879 5879 5879 5878 5878 5877 5878 5878 5877 5877 5877 5877 5876 5876 5876 5875 5875 5874 5874 5874 5873 5873 5872 5872 5871 5871 5870 5869 5869 5869 5868 5867 5866 5865 5866 5864 5863 5863 5862 5861 5860 5859 5859 5860 5859 5859 5858 5858 5857 5856 5855 5856 5855 5854 5853 5852 5852 5851 5851 5850
5875 5875 5875 5875 5875 5875 5876 5876 5876 5876 5876 5876 5876 5876 5876 5876 5876 5876 5876 5876 5876 5876 5876 5876 5876 5876 5876 5876 5876 5876 5876 5875 5875 5875 5875 5875 5874 5874 5874 5874 5874 5873 5873 5873 5872 5872 5871 5871 5870 5870 5870 5869 5869 5869 5868 5867 5867 5867 5866 5865 5864 5863 5863 5862 5861 5861 5859 5859 5858 5857 5857 5856 5856 5856 5856 5856 5854 5853 5853 5854 5853 5853 5851 5850 5850 5849 5848 5847
5872 5872 5872 5872 5872 5872 5872 5873 5873 5873 5873 5873 5873 5873 5873 5873 5873 5874 5874 5873 5874 5873 5873 5873 5873 5873 5873 5874 5874 5874 5874 5872 5871 5872 5872 5872 5871 5871 5871 5871 5871 5870 5870 5870 5869 5869 5868 5868 5867 5867 5867 5866 5865 5866 5865 5864 5864 5865 5864 5862 5862 5861 5861 5860 5859 5858 5857 5856 5855 5854 5854 5853 5853 5853 5854 5853 5850 5849 5850 5851 5851 5851 5850 5849 5848 5847 5846 5845
5868 5869 5869 5869 5869 5869 5869 5869 5870 5870 5870 5870 5870 5870 5870 5870 5870 5871 5871 5871 5871 5870 5871 5870 5870 5870 5870 5871 5871 5871 5871 5869 5868 5869 5869 5868 5868 5868 5868 5868 5867 5867 5867 5867 5866 5866 5865 5864 5864 5863 5864 5863 5862 5862 5861 5861 5861 5861 5861 5859 5859 5858 5857 5857 5856 5856 5854 5853 5852 5851 5851 5850 5849 5849 5852 5850 5846 5847 5847 5847 5847 5847 5847 5847 5846 5846 5844 5843
5865 5865 5865 5866 5866 5866 5866 5866 5867 5866 5867 5867 5867 5867 5867 5867 5867 5867 5868 5868 5868 5867 5868 5867 5868 5867 5867 5868 5868 5869 5868 5866 5865 5866 5866 5865 5865 5864 5864 5864 5864 5864 5864 5863 5863 5862 5862 5861 5860 5860 5860 5859 5859 5858 5857 5857 5858 5857 5857 5856 5856 5855 5854 5853 5853 5852 5850 5850 5848 5847 5848 5847 5845 5845 5849 5847 5842 5843 5844 5843 5843 5842 5843 5843 5842 5842 5841 5840
5862 5862 5862 5862 5862 5863 5863 5863 5863 5863 5864 5864 5864 5864 5864 5864 5864 5864 5864 5864 5864 5864 5864 5864 5864 5864 5864 5864 5865 5866 5865 5863 5862 5862 5863 5862 5862 5861 5861 5861 5861 5861 5860 5860 5859 5859 5858 5857 5856 5856 5856 5856 5856 5855 5853 5853 5854 5853 5852 5852 5853 5851 5850 5850 5849 5848 5846 5846 5845 5843 5844 5843 5841 5841 5845 5844 5837 5839 5840 5839 5839 5838 5838 5838 5837 5837 5836 5836
5858 5858 5859 5859 5859 5859 5859 5860 5860 5860 5860 5860 5861 5861 5861 5861 5861 5861 5861 5861 5861 5861 5861 5861 5861 5861 5861 5861 5862 5864 5861 5860 5860 5859 5859 5859 5858 5858 5857 5857 5857 5858 5857 5856 5856 5855 5855 5853 5853 5852 5852 5852 5852 5851 5849 5849 5849 5848 5847 5848 5848 5847 5847 5847 5845 5844 5841 5842 5842 5839 5839 5839 5837 5837 5841 5840 5834 5834 5836 5835 5834 5833 5834 5833 5833 5833 5831 5831
5855 5855 5855 5855 5855 5855 5856 5856 5856 5857 5857 5857 5857 5857 5857 5858 5858 5858 5858 5858 5858 5858 5857 5857 5857 5857 5857 5858 5860 5860 5858 5857 5857 5856 5856 5855 5855 5854 5854 5854 5854 5854 5853 5853 5852 5852 5851 5850 5849 5848 5847 5848 5848 5848 5846 5845 5844 5843 5842 5842 5844 5842 5843 5844 5841 5839 5837 5837 5837 5833 5833 5836 5835 5834 5835 5834 5830 5830 5831 5831 5830 5829 5829 5828 5828 5828 5827 5827
5851 5851 5851 5852 5851 5852 5852 5852 5853 5853 5853 5853 5853 5853 5853 5854 5854 5855 5854 5854 5855 5855 5854 5853 5853 5853 5852 5855 5857 5856 5855 5854 5853 5852 5852 5851 5851 5851 5851 5851 5851 5850 5850 5850 5849 5848 5847 5846 5845 5844 5843 5843 5844 5844 5842 5842 5840 5839 5837 5836 5840 5838 5838 5841 5837 5834 5833 5832 5832 5827 5826 5831 5833 5831 5831 5829 5826 5825 5826 5827 5827 5825 5824 5823 5823 5822 5822 5822
5848 5848 5848 5848 5848 5848 5848 5848 5848 5849 5849 5849 5849 5849 5849 5850 5850 5851 5851 5851 5851 5851 5851 5849 5849 5848 5848 5851 5854 5852 5851 5851 5849 5849 5847 5847 5847 5848 5848 5848 5847 5847 5846 5846 5845 5844 5843 5842 5840 5840 5839 5839 5840 5839 5838 5839 5836 5835 5833 5831 5834 5833 5834 5838 5833 5830 5830 5827 5827 5823 5819 5826 5830 5828 5827 5825 5821 5820 5821 5823 5823 5822 5821 5819 5818 5817 5817 5816
5844 5844 5844 5844 5844 5844 5844 5844 5844 5845 5845 5845 5845 5845 5844 5845 5846 5846 5846 5846 5847 5847 5846 5845 5845 5844 5843 5848 5851 5848 5847 5847 5846 5845 5843 5843 5844 5844 5844 5844 5844 5844 5843 5843 5841 5841 5840 5838 5836 5835 5835 5835 5835 5834 5834 5834 5832 5831 5828 5827 5828 5825 5828 5834 5830 5827 5826 5822 5823 5819 5813 5820 5827 5825 5823 5820 5818 5817 5817 5818 5818 5818 5817 5815 5814 5812 5812 5812
5840 5840 5840 5840 5840 5841 5841 5840 5840 5841 5841 5841 5841 5840 5840 5840 5841 5842 5841 5841 5842 5842 5842 5841 5841 5839 5838 5844 5847 5845 5844 5843 5842 5841 5839 5840 5841 5841 5841 5841 5840 5840 5840 5839 5838 5837 5836 5834 5832 5830 5830 5831 5831 5830 5829 5829 5829 5828 5823 5823 5823 5818 5821 5828 5827 5824 5821 5817 5818 5815 5810 5815 5822 5822 5819 5816 5814 5813 5812 5813 5814 5814 5814 5812 5810 5809 5808 5807
5836 5836 5836 5836 5837 5837 5837 5836 5836 5837 5837 5837 5836 5836 5836 5835 5836 5836 5836 5837 5837 5837 5837 5835 5836 5834 5833 5840 5843 5841 5840 5839 5837 5837 5836 5837 5837 5838 5838 5837 5837 5837 5836 5835 5835 5834 5832 5830 5827 5826 5826 5828 5829 5826 5824 5823 5826 5826 5819 5817 5818 5815 5815 5820 5823 5822 5817 5813 5811 5810 5806 5810 5817 5817 5815 5813 5811 5809 5807 5808 5810 5810 5809 5808 5806 5805 5804 5803
5832 5832 5832 5832 5832 5833 5833 5832 5832 5832 5833 5833 5832 5832 5831 5831 5831 5831 5831 5832 5831 5832 5831 5830 5831 5829 5828 5834 5836 5837 5837 5834 5833 5833 5833 5833 5833 5834 5834 5834 5834 5833 5833 5832 5831 5830 5828 5825 5822 5821 5822 5825 5827 5823 5818 5818 5821 5821 5815 5811 5812 5812 5811 5813 5818 5817 5813 5809 5805 5803 5801 5805 5811 5811 5810 5810 5808 5805 5803 5804 5805 5806 5804 5803 5802 5801 5799 5799
5827 5827 5827 5827 5828 5828 5828 5827 5827 5827 5828 5828 5828 5828 5827 5826 5826 5825 5825 5826 5826 5827 5826 5825 5825 5823 5824 5829 5830 5832 5833 5830 5830 5830 5829 5830 5830 5830 5830 5830 5830 5829 5828 5827 5828 5826 5823 5820 5816 5815 5819 5823 5824 5820 5814 5814 5816 5814 5811 5807 5806 5807 5807 5809 5812 5810 5807 5802 5799 5797 5795 5797 5802 5804 5805 5806 5804 5801 5800 5800 5800 5801 5801 5799 5797 5796 5795 5794
5822 5822 5822 5823 5822 5822 5823 5823 5822 5822 5823 5823 5822 5822 5822 5821 5820 5820 5820 5820 5821 5822 5820 5820 5820 5818 5819 5823 5824 5825 5827 5827 5826 5826 5827 5827 5826 5826 5826 5826 5826 5825 5824 5824 5824 5820 5817 5814 5810 5810 5817 5822 5821 5815 5810 5810 5810 5807 5806 5803 5801 5801 5801 5806 5808 5805 5800 5794 5792 5792 5789 5790 5794 5798 5800 5801 5800 5798 5797 5796 5795 5796 5796 5794 5793 5792 5792 5791
5817 5817 5817 5817 5817 5817 5817 5817 5817 5817 5817 5817 5817 5816 5816 5815 5815 5814 5814 5814 5815 5816 5815 5814 5814 5813 5814 5817 5818 5819 5821 5821 5821 5822 5824 5824 5822 5822 5822 5822 5821 5819 5819 5820 5817 5814 5812 5808 5804 5808 5816 5818 5815 5809 5806 5806 5804 5802 5800 5799 5798 5795 5795 5801 5803 5801 5797 5787 5784 5787 5783 5782 5788 5792 5794 5795 5794 5795 5795 5793 5792 5792 5790 5789 5789 5788 5788 5786
5812 5812 5812 5812 5811 5812 5811 5812 5811 5811 5811 5812 5812 5811 5810 5809 5809 5809 5808 5808 5810 5810 5810 5810 5807 5807 5810 5811 5811 5813 5815 5815 5816 5819 5820 5819 5818 5817 5818 5817 5815 5813 5815 5814 5810 5809 5807 5802 5802 5809 5813 5811 5807 5805 5803 5801 5799 5797 5795 5794 5793 5791 5792 5796 5797 5797 5794 5782 5778 5781 5777 5775 5782 5786 5788 5789 5789 5790 5792 5791 5790 5789 5787 5785 5785 5785 5784 5782
5806 5806 5807 5806 5806 5806 5806 5806 5806 5805 5806 5806 5806 5806 5805 5804 5803 5803 5801 5801 5804 5806 5804 5804 5803 5802 5803 5804 5805 5808 5808 5809 5813 5814 5814 5813 5813 5813 5813 5811 5809 5809 5809 5806 5805 5804 5799 5796 5802 5807 5806 5804 5802 5801 5800 5797 5794 5791 5791 5790 5787 5787 5789 5788 5791 5793 5788 5778 5774 5775 5769 5767 5774 5780 5783 5785 5784 5785 5786 5787 5787 5785 5783 5782 5781 5781 5780 5778
5800 5801 5801 5801 5801 5801 5800 5801 5800 5800 5800 5800 5800 5800 5799 5799 5799 5798 5795 5793 5797 5801 5799 5799 5799 5797 5796 5797 5800 5802 5802 5805 5807 5807 5808 5808 5808 5808 5806 5805 5804 5802 5801 5801 5802 5798 5790 5792 5800 5800 5798 5798 5798 5797 5795 5792 5789 5787 5787 5785 5781 5784 5784 5780 5783 5786 5781 5774 5770 5769 5762 5759 5766 5772 5777 5781 5779 5779 5782 5782 5783 5781 5780 5779 5777 5777 5776 5774
5795 5795 5795 5795 5795 5795 5795 5795 5795 5795 5795 5794 5794 5794 5794 5794 5794 5792 5790 5786 5786 5793 5796 5795 5792 5791 5792 5793 5794 5796 5798 5800 5801 5800 5802 5802 5802 5801 5800 5800 5796 5794 5795 5797 5797 5790 5785 5790 5794 5792 5791 5792 5792 5792 5790 5787 5785 5784 5783 5781 5778 5781 5780 5775 5776 5776 5772 5768 5767 5765 5753 5749 5759 5765 5769 5775 5774 5774 5777 5777 5778 5777 5775 5776 5775 5773 5771 5769
5789 5789 5789 5790 5790 5790 5790 5790 5790 5790 5789 5789 5788 5788 5788 5788 5788 5787 5785 5781 5777 5782 5788 5787 5787 5787 5789 5790 5790 5791 5792 5793 5794 5795 5797 5796 5796 5794 5793 5792 5788 5788 5791 5792 5790 5781 5781 5788 5790 5785 5785 5786 5786 5786 5785 5783 5781 5779 5778 5779 5778 5776 5774 5772 5771 5768 5763 5760 5762 5762 5748 5740 5750 5757 5761 5768 5768 5769 5772 5772 5773 5773 5770 5770 5770 5769 5767 5764
5782 5783 5783 5784 5784 5784 5785 5784 5784 5784 5783 5783 5782 5783 5783 5782 5782 5780 5780 5776 5771 5773 5776 5776 5780 5784 5786 5786 5787 5786 5785 5786 5788 5790 5790 5789 5789 5787 5786 5784 5783 5784 5785 5785 5782 5773 5775 5785 5785 5782 5781 5780 5779 5778 5780 5780 5777 5773 5772 5775 5776 5772 5770 5768 5767 5763 5757 5753 5753 5754 5746 5736 5739 5748 5755 5758 5759 5762 5766 5767 5768 5768 5766 5764 5764 5764 5763 5761
5775 5776 5777 5778 5778 5778 5779 5778 5779 5778 5778 5777 5777 5777 5777 5776 5776 5775 5775 5771 5766 5766 5766 5765 5771 5778 5781 5782 5782 5781 5780 5781 5783 5783 5782 5781 5781 5780 5779 5779 5779 5779 5778 5777 5772 5768 5773 5778 5776 5777 5777 5773 5772 5773 5775 5775 5770 5767 5768 5769 5769 5767 5766 5764 5762 5759 5754 5751 5746 5743 5742 5736 5731 5739 5748 5748 5748 5753 5758 5762 5763 5762 5760 5758 5758 5757 5757 5755
5768 5769 5770 5771 5772 5772 5772 5773 5772 5772 5772 5772 5772 5771 5770 5771 5771 5771 5771 5766 5761 5759 5759 5761 5764 5768 5771 5772 5774 5775 5775 5776 5775 5775 5776 5775 5774 5774 5773 5773 5773 5772 5772 5769 5765 5766 5769 5769 5768 5769 5768 5766 5768 5770 5769 5767 5763 5764 5764 5762 5761 5761 5760 5759 5757 5754 5751 5747 5741 5736 5739 5737 5728 5732 5741 5739 5738 5744 5749 5754 5755 5755 5754 5753 5753 5753 5751 5749
5762 5762 5763 5764 5766 5766 5766 5767 5766 5766 5766 5766 5766 5765 5765 5765 5765 5767 5766 5761 5755 5753 5755 5759 5759 5758 5760 5762 5764 5767 5767 5768 5767 5767 5769 5769 5768 5768 5767 5767 5766 5765 5765 5762 5761 5762 5763 5763 5762 5760 5759 5760 5763 5763 5762 5760 5759 5759 5758 5756 5755 5754 5753 5753 5751 5749 5747 5740 5734 5732 5735 5737 5728 5726 5732 5732 5733 5738 5742 5745 5746 5747 5748 5746 5748 5749 5746 5744
5755 5756 5756 5757 5759 5759 5759 5761 5760 5759 5760 5759 5759 5759 5759 5759 5760 5760 5758 5753 5752 5752 5753 5754 5752 5751 5753 5754 5754 5755 5756 5758 5760 5761 5761 5761 5762 5761 5760 5760 5759 5758 5758 5755 5755 5757 5758 5757 5755 5753 5754 5755 5755 5755 5754 5754 5753 5753 5753 5751 5749 5747 5746 5745 5743 5742 5740 5732 5731 5731 5733 5736 5727 5717 5721 5725 5728 5733 5735 5738 5739 5739 5740 5740 5742 5745 5742 5738
5749 5749 5749 5751 5752 5751 5753 5755 5754 5753 5753 5752 5752 5753 5752 5751 5753 5752 5749 5748 5750 5749 5749 5748 5745 5745 5747 5747 5747 5747 5747 5749 5750 5751 5752 5754 5755 5755 5754 5754 5752 5750 5750 5749 5749 5751 5751 5749 5749 5749 5749 5749 5748 5748 5748 5747 5747 5747 5747 5744 5742 5741 5739 5736 5734 5735 5732 5726 5728 5730 5731 5733 5724 5713 5714 5718 5720 5725 5727 5730 5731 5731 5733 5732 5733 5738 5739 5734
5742 5742 5742 5744 5745 5745 5747 5748 5748 5748 5747 5745 5745 5745 5744 5742 5743 5744 5745 5745 5744 5742 5745 5743 5739 5739 5740 5740 5741 5741 5740 5740 5741 5741 5742 5745 5747 5748 5748 5747 5746 5743 5742 5743 5744 5744 5743 5744 5744 5743 5743 5744 5743 5742 5742 5741 5742 5741 5739 5737 5735 5733 5730 5727 5727 5727 5726 5724 5726 5727 5726 5723 5715 5711 5714 5715 5716 5719 5720 5720 5721 5723 5725 5723 5723 5729 5733 5730
5735 5735 5736 5737 5738 5739 5740 5740 5741 5742 5740 5739 5738 5737 5736 5733 5735 5740 5740 5739 5737 5736 5739 5738 5734 5733 5733 5733 5736 5735 5734 5734 5733 5733 5733 5734 5735 5738 5740 5740 5739 5737 5736 5738 5737 5735 5735 5738 5739 5735 5736 5740 5738 5736 5735 5735 5736 5734 5732 5731 5728 5726 5721 5718 5721 5721 5720 5721 5722 5722 5719 5711 5707 5707 5710 5712 5714 5715 5714 5714 5715 5716 5717 5714 5714 5720 5725 5724
5729 5729 5729 5731 5732 5732 5733 5733 5734 5735 5734 5733 5730 5728 5728 5726 5731 5736 5733 5731 5733 5732 5732 5731 5729 5728 5726 5727 5728 5728 5728 5727 5727 5726 5725 5725 5725 5726 5729 5731 5732 5731 5729 5729 5729 5729 5727 5730 5735 5731 5730 5733 5731 5729 5730 5728 5728 5726 5725 5724 5720 5719 5716 5713 5717 5717 5713 5714 5715 5713 5709 5705 5704 5704 5704 5706 5707 5707 5707 5709 5710 5710 5710 5707 5705 5711 5717 5717
5722 5722 5722 5724 5725 5725 5725 5725 5726 5727 5726 5725 5721 5717 5719 5722 5727 5729 5725 5724 5725 5724 5725 5725 5725 5722 5720 5721 5721 5720 5720 5719 5719 5719 5717 5718 5718 5718 5720 5721 5722 5723 5722 5720 5720 5721 5718 5720 5729 5726 5723 5726 5725 5724 5724 5721 5720 5719 5718 5714 5712 5715 5714 5710 5710 5711 5708 5705 5706 5703 5699 5700 5703 5700 5700 5701 5699 5700 5701 5702 5704 5703 5703 5701 5699 5704 5709 5710
5714 5715 5716 5718 5718 5717 5716 5716 5718 5718 5717 5716 5710 5707 5713 5720 5722 5721 5718 5717 5717 5717 5718 5717 5717 5716 5715 5715 5714 5714 5714 5711 5711 5709 5708 5710 5710 5713 5714 5713 5714 5714 5714 5712 5711 5712 5708 5709 5719 5718 5713 5717 5717 5716 5717 5714 5712 5712 5709 5707 5709 5711 5710 5704 5701 5704 5704 5696 5696 5697 5691 5693 5698 5694 5694 5696 5694 5696 5696 5695 5696 5695 5695 5695 5694 5696 5700 5701
5706 5707 5708 5710 5710 5709 5708 5707 5708 5708 5708 5704 5698 5699 5707 5713 5714 5713 5712 5711 5710 5709 5708 5706 5709 5710 5709 5707 5707 5708 5706 5703 5703 5701 5700 5701 5702 5707 5709 5706 5707 5705 5705 5705 5702 5704 5700 5696 5706 5710 5705 5707 5708 5707 5708 5707 5704 5702 5702 5705 5706 5703 5701 5697 5692 5694 5696 5688 5687 5691 5686 5685 5690 5688 5688 5690 5689 5689 5688 5687 5688 5688 5688 5688 5688 5690 5690 5690
5698 5699 5701 5703 5702 5700 5700 5698 5697 5698 5697 5692 5689 5694 5701 5704 5707 5707 5705 5704 5702 5702 5700 5697 5699 5702 5701 5700 5701 5703 5699 5695 5696 5695 5693 5692 5694 5701 5701 5698 5698 5697 5697 5697 5691 5692 5692 5684 5690 5699 5698 5697 5699 5698 5697 5698 5696 5695 5698 5701 5699 5694 5692 5690 5684 5682 5685 5680 5677 5683 5682 5679 5683 5685 5685 5685 5685 5683 5680 5680 5681 5680 5680 5680 5681 5684 5684 5681
5689 5689 5692 5695 5693 5690 5690 5688 5686 5687 5684 5681 5682 5688 5694 5698 5699 5699 5697 5696 5695 5694 5693 5691 5691 5691 5692 5693 5694 5695 5693 5689 5688 5686 5685 5684 5685 5692 5693 5689 5690 5689 5689 5688 5682 5682 5684 5675 5674 5685 5690 5688 5689 5690 5689 5690 5689 5687 5688 5689 5688 5687 5684 5680 5676 5674 5675 5670 5666 5671 5673 5674 5679 5684 5684 5681 5679 5678 5674 5674 5676 5674 5674 5674 5672 5675 5677 5674
5680 5679 5683 5688 5684 5680 5681 5678 5675 5676 5673 5673 5677 5681 5685 5687 5689 5691 5690 5688 5686 5685 5684 5684 5684 5682 5682 5685 5686 5686 5685 5682 5681 5679 5678 5677 5679 5684 5685 5682 5682 5681 5679 5679 5676 5675 5674 5668 5664 5670 5676 5676 5678 5682 5682 5683 5682 5677 5676 5677 5678 5679 5676 5670 5666 5667 5668 5661 5657 5658 5658 5669 5681 5680 5678 5678 5674 5673 5670 5669 5670 5670 5670 5670 5667 5667 5668 5667
5669 5668 5673 5680 5673 5669 5671 5667 5664 5667 5664 5666 5671 5673 5674 5675 5678 5684 5683 5678 5677 5676 5675 5675 5674 5673 5674 5676 5678 5678 5676 5673 5674 5673 5670 5672 5674 5675 5676 5677 5675 5673 5671 5670 5669 5666 5662 5659 5656 5657 5660 5662 5668 5674 5673 5673 5672 5668 5666 5667 5669 5670 5667 5659 5652 5656 5661 5652 5648 5647 5640 5655 5678 5675 5671 5675 5669 5666 5668 5664 5663 5664 5664 5664 5662 5660 5661 5660
5659 5658 5664 5669 5662 5659 5660 5654 5654 5658 5656 5658 5663 5663 5663 5664 5669 5674 5673 5670 5667 5666 5666 5665 5665 5666 5666 5666 5668 5669 5666 5662 5664 5665 5663 5665 5668 5667 5669 5672 5669 5665 5664 5662 5660 5659 5654 5650 5647 5646 5649 5651 5656 5663 5663 5661 5662 5659 5655 5656 5660 5660 5657 5651 5643 5645 5648 5639 5638 5639 5624 5636 5669 5672 5665 5669 5664 5659 5661 5660 5658 5659 5659 5657 5654 5652 5652 5652
5649 5649 5652 5656 5653 5650 5647 5641 5643 5648 5648 5652 5655 5654 5653 5653 5657 5662 5663 5662 5658 5656 5657 5656 5656 5657 5657 5658 5657 5656 5655 5652 5651 5656 5656 5654 5658 5662 5665 5665 5662 5659 5657 5653 5651 5652 5648 5643 5639 5637 5640 5642 5645 5651 5654 5653 5652 5647 5645 5648 5649 5648 5647 5643 5636 5635 5633 5626 5628 5627 5611 5620 5656 5665 5656 5658 5658 5652 5653 5653 5653 5654 5654 5650 5644 5643 5643 5643
5639 5640 5642 5644 5643 5640 5635 5633 5636 5637 5638 5643 5644 5644 5644 5642 5644 5651 5654 5654 5650 5647 5646 5647 5647 5647 5647 5647 5646 5644 5646 5643 5640 5645 5647 5644 5648 5656 5658 5657 5655 5653 5651 5647 5645 5644 5641 5637 5633 5629 5629 5631 5634 5640 5644 5645 5642 5636 5636 5639 5638 5638 5638 5632 5629 5626 5617 5615 5621 5615 5600 5612 5642 5652 5646 5648 5648 5645 5647 5649 5647 5646 5645 5642 5636 5635 5635 5635
5628 5629 5631 5632 5630 5628 5627 5628 5629 5626 5626 5631 5631 5632 5634 5631 5634 5643 5644 5642 5641 5638 5636 5637 5639 5638 5636 5635 5635 5634 5636 5635 5631 5632 5634 5635 5639 5647 5650 5650 5648 5645 5644 5641 5637 5635 5630 5627 5627 5623 5619 5620 5623 5629 5636 5637 5632 5627 5628 5631 5631 5631 5630 5624 5621 5615 5606 5609 5613 5604 5597 5609 5628 5635 5635 5638 5639 5638 5641 5643 5641 5637 5634 5633 5631 5629 5628 5627
5617 5618 5621 5621 5617 5616 5618 5622 5622 5616 5617 5620 5617 5619 5624 5622 5625 5632 5631 5629 5632 5632 5627 5624 5626 5627 5626 5625 5625 5624 5625 5626 5623 5619 5621 5625 5630 5636 5641 5641 5639 5637 5637 5633 5629 5626 5618 5614 5619 5616 5610 5611 5614 5619 5626 5627 5621 5618 5620 5624 5625 5624 5622 5618 5612 5605 5603 5603 5598 5596 5600 5604 5611 5620 5625 5630 5633 5632 5634 5634 5631 5628 5625 5624 5625 5623 5621 5621
5606 5607 5610 5608 5604 5604 5609 5613 5614 5609 5608 5608 5604 5606 5613 5614 5615 5618 5619 5619 5623 5623 5617 5612 5614 5616 5616 5617 5616 5612 5613 5614 5612 5608 5609 5613 5620 5626 5629 5629 5628 5629 5629 5623 5618 5617 5606 5600 5607 5606 5599 5602 5606 5608 5615 5614 5609 5609 5611 5614 5616 5616 5614 5610 5602 5600 5603 5594 5583 5592 5602 5595 5596 5609 5615 5619 5625 5625 5625 5625 5621 5618 5617 5617 5617 5616 5615 5615
5596 5598 5599 5596 5592 5595 5599 5602 5603 5600 5598 5598 5594 5595 5601 5604 5604 5605 5607 5608 5609 5610 5605 5601 5604 5607 5608 5609 5606 5600 5600 5601 5599 5600 5600 5601 5607 5611 5613 5616 5617 5619 5620 5613 5607 5606 5595 5587 5595 5596 5588 5591 5595 5595 5600 5600 5597 5599 5600 5601 5606 5607 5604 5600 5595 5597 5599 5585 5576 5588 5594 5586 5588 5600 5604 5609 5614 5615 5614 5613 5611 5611 5612 5611 5609 5608 5608 5608
5586 5587 5588 5585 5583 5586 5589 5590 5589 5588 5587 5587 5585 5586 5589 5591 5593 5594 5595 5595 5593 5596 5596 5592 5594 5597 5597 5597 5593 5588 5589 5589 5588 5591 5593 5591 5592 5594 5596 5600 5606 5610 5608 5601 5597 5595 5585 5577 5585 5588 5579 5579 5582 5582 5585 5586 5583 5584 5587 5589 5593 5594 5593 5590 5587 5590 5590 5578 5574 5581 5580 5576 5583 5591 5594 5599 5602 5600 5598 5600 5602 5603 5605 5606 5604 5600 5600 5601
5575 5575 5577 5576 5574 5578 5580 5579 5577 5576 5576 5577 5575 5578 5580 5579 5579 5582 5583 5584 5581 5583 5585 5582 5582 5585 5584 5583 5581 5578 5580 5581 5579 5581 5584 5581 5579 5579 5580 5583 5590 5597 5595 5590 5588 5586 5578 5572 5577 5579 5569 5565 5572 5574 5572 5572 5570 5569 5572 5577 5580 5579 5579 5579 5578 5579 5577 5570 5570 5573 5565 5563 5576 5585 5585 5586 5585 5583 5582 5585 5589 5592 5595 5597 5595 5591 5591 5590
5564 5563 5565 5565 5565 5569 5570 5569 5567 5564 5565 5570 5568 5568 5569 5567 5567 5568 5570 5574 5574 5571 5573 5571 5569 5571 5571 5571 5571 5570 5570 5570 5568 5570 5571 5569 5568 5570 5570 5569 5574 5579 5580 5579 5578 5576 5571 5565 5567 5570 5556 5550 5563 5566 5560 5561 5560 5554 5557 5566 5570 5569 5567 5568 5568 5568 5565 5561 5561 5560 5553 5553 5568 5575 5570 5568 5569 5569 5568 5571 5574 5577 5581 5582 5579 5577 5578 5577
5554 5553 5554 5553 5554 5560 5560 5557 5556 5554 5556 5562 5560 5555 5554 5554 5557 5558 5558 5561 5563 5563 5562 5560 5557 5557 5559 5559 5560 5561 5560 5558 5558 5558 5559 5558 5559 5561 5562 5562 5563 5565 5565 5566 5565 5564 5562 5556 5557 5558 5544 5538 5552 5555 5550 5551 5543 5533 5545 5559 5562 5560 5558 5556 5555 5555 5556 5554 5548 5544 5543 5549 5557 5557 5552 5552 5556 5556 5557 5560 5562 5563 5565 5565 5563 5563 5563 5564